DW2537 Weather Reports


Display with metric or nautical units.
time (UTC)temp
F
wind
direction
speed
MPH
gust
MPH
rain 1hr
in
rain 24hr
in
rain mn
in
humidity
%
barometer
mb
20260508025018 50 227 0.0 2.0 0.00 0.04 0.04 82 1010.9
20260508024544 50 252 0.0 2.0 0.00 0.04 0.04 82 1011.0
20260508024019 50 256 0.0 2.0 0.00 0.04 0.04 81 1010.9
20260508023519 50 261 0.0 2.0 0.00 0.04 0.04 81 1010.9
20260508023039 50 231 0.0 2.0 0.00 0.04 0.04 81 1010.9
20260508022518 50 0 0.0 2.0 0.00 0.04 0.04 80 1011.0
20260508022058 50 224 0.0 2.0 0.00 0.04 0.04 80 1011.0
20260508021538 51 0 0.0 2.0 0.00 0.04 0.04 79 1011.0
20260508021018 51 0 0.0 2.0 0.00 0.04 0.04 79 1011.0
20260508020516 51 0 0.0 2.0 0.00 0.04 0.04 78 1010.9
20260508020046 51 0 0.0 2.0 0.00 0.04 0.04 78 1010.9
20260508015519 51 0 0.0 2.0 0.00 0.04 0.04 78 1010.9
20260508015016 51 229 0.0 2.0 0.00 0.04 0.04 78 1010.8
20260508014533 52 0 0.0 2.0 0.00 0.04 0.04 77 1010.8
20260508014019 52 0 0.0 2.0 0.00 0.04 0.04 77 1010.8
20260508013518 52 259 0.0 2.0 0.00 0.04 0.04 74 1010.7
20260508013036 52 220 0.0 2.0 0.00 0.04 0.04 74 1010.7
20260508012518 52 0 0.0 3.0 0.00 0.04 0.04 76 1010.7
20260508012018 52 242 0.0 3.0 0.00 0.04 0.04 76 1010.6
20260508011543 52 198 0.0 2.0 0.00 0.04 0.04 76 1010.5
20260508011019 53 0 0.0 2.0 0.00 0.04 0.04 75 1010.4
20260508010516 53 0 0.0 2.0 0.00 0.04 0.04 74 1010.2
20260508010035 53 0 0.0 2.0 0.00 0.04 0.04 73 1010.1
20260508005518 53 107 0.0 2.0 0.00 0.04 0.04 72 1010.0
20260508005016 53 0 0.0 2.0 0.00 0.04 0.04 71 1010.0
20260508004545 54 0 0.0 2.0 0.00 0.04 0.04 71 1009.9
20260508004018 54 221 0.0 2.0 0.00 0.04 0.04 71 1009.8
20260508003518 54 221 0.0 3.0 0.00 0.04 0.04 70 1009.7
20260508003039 54 210 0.0 3.0 0.00 0.04 0.04 69 1009.6
20260508002518 54 276 0.0 2.0 0.00 0.04 0.04 68 1009.6
20260508002018 55 323 0.0 2.0 0.00 0.04 0.04 67 1009.6
20260508001537 55 330 0.0 2.0 0.00 0.04 0.04 62 1009.5
20260508001018 55 278 0.0 4.0 0.00 0.04 0.04 63 1009.4
20260508000522 55 225 0.0 4.0 0.00 0.04 0.04 63 1009.3
20260508000037 55 171 1.0 2.0 0.00 0.04 0.04 65 1009.3
20260507235516 56 293 0.0 2.0 0.00 0.04 0.04 64 1009.3
20260507235016 56 302 0.0 2.0 0.00 0.04 0.04 64 1009.1
20260507234533 56 258 0.0 2.0 0.00 0.04 0.04 59 1009.1
20260507234017 56 37 0.0 2.0 0.00 0.04 0.04 58 1009.1
20260507233524 57 212 0.0 3.0 0.00 0.04 0.04 62 1009.0
20260507233035 57 209 1.0 3.0 0.00 0.04 0.04 59 1009.0
20260507232518 57 139 0.0 2.0 0.00 0.04 0.04 62 1008.9
20260507232018 57 250 1.0 2.0 0.00 0.04 0.04 61 1008.9
20260507231547 58 28 0.0 2.0 0.00 0.04 0.04 60 1008.9
20260507231023 58 22 0.0 2.0 0.00 0.04 0.04 60 1008.9
20260507230520 58 116 0.0 3.0 0.00 0.04 0.04 56 1008.8
20260507230041 58 111 0.0 3.0 0.00 0.04 0.04 57 1008.8
20260507225519 59 221 1.0 3.0 0.00 0.04 0.04 55 1008.7
20260507225018 59 348 1.0 3.0 0.00 0.04 0.04 57 1008.6
20260507224538 59 44 1.0 3.0 0.00 0.04 0.04 56 1008.6
20260507224019 59 350 1.0 4.0 0.00 0.04 0.04 54 1008.6
20260507223520 60 295 0.0 4.0 0.00 0.04 0.04 57 1008.5
20260507223034 60 329 0.0 3.0 0.00 0.04 0.04 54 1008.5
20260507222519 60 238 0.0 3.0 0.00 0.04 0.04 53 1008.5
20260507222023 60 0 0.0 4.0 0.00 0.04 0.04 56 1008.5
20260507221541 61 126 1.0 4.0 0.00 0.04 0.04 55 1008.4
20260507221019 61 160 1.0 4.0 0.00 0.04 0.04 55 1008.3
20260507220519 61 154 1.0 4.0 0.00 0.04 0.04 56 1008.4
20260507220032 61 210 2.0 4.0 0.00 0.04 0.04 55 1008.5
20260507215519 61 177 0.0 4.0 0.00 0.04 0.04 55 1008.4
20260507215019 61 258 0.0 5.0 0.00 0.04 0.04 55 1008.6
20260507214539 61 32 1.0 5.0 0.00 0.04 0.04 50 1008.6
20260507214019 62 130 1.0 5.0 0.00 0.04 0.04 53 1008.6
20260507213520 62 324 0.0 3.0 0.00 0.04 0.04 54 1008.5
20260507213039 62 194 0.0 6.0 0.00 0.04 0.04 54 1008.5
20260507212519 63 64 1.0 6.0 0.00 0.04 0.04 55 1008.4
20260507212020 63 176 0.0 2.0 0.00 0.04 0.04 52 1008.4
20260507211535 63 278 0.0 4.0 0.00 0.04 0.04 53 1008.4
20260507211015 63 55 1.0 4.0 0.00 0.04 0.04 54 1008.4
20260507210519 63 47 1.0 4.0 0.00 0.04 0.04 51 1008.5
20260507210040 63 127 1.0 4.0 0.00 0.04 0.04 50 1008.5
20260507205519 64 201 0.0 9.0 0.00 0.04 0.04 49 1008.3
20260507205022 64 78 3.0 9.0 0.00 0.04 0.04 49 1008.4
20260507204540 64 22 1.0 8.0 0.00 0.04 0.04 48 1008.6
20260507204019 65 266 1.0 4.0 0.00 0.04 0.04 50 1008.5
20260507203519 65 327 1.0 7.0 0.00 0.04 0.04 51 1008.5
20260507203046 64 280 1.0 7.0 0.00 0.04 0.04 48 1008.4
20260507202518 64 236 1.0 5.0 0.00 0.04 0.04 47 1008.3
20260507202016 64 117 1.0 3.0 0.00 0.04 0.04 45 1008.4
20260507201540 64 348 1.0 3.0 0.00 0.04 0.04 54 1008.3
20260507201016 64 71 1.0 5.0 0.00 0.04 0.04 51 1008.3
20260507200519 63 36 1.0 5.0 0.00 0.04 0.04 51 1008.3
20260507200045 64 182 2.0 4.0 0.00 0.04 0.04 45 1008.2
20260507195545 64 149 1.0 7.0 0.00 0.04 0.04 49 1008.4
20260507195019 63 9 1.0 7.0 0.00 0.04 0.04 44 1008.5
20260507194532 64 37 1.0 4.0 0.00 0.04 0.04 44 1008.6
20260507194020 64 32 1.0 5.0 0.00 0.04 0.04 51 1008.7
20260507193519 63 236 1.0 6.0 0.00 0.04 0.04 52 1008.6
20260507193034 63 209 1.0 6.0 0.00 0.04 0.04 49 1009.0
20260507192518 63 107 1.0 7.0 0.00 0.04 0.04 49 1009.1
20260507192020 63 136 1.0 7.0 0.00 0.04 0.04 50 1009.3
20260507191532 63 209 1.0 8.0 0.00 0.04 0.04 51 1009.3
20260507191019 63 66 2.0 8.0 0.00 0.04 0.04 46 1009.1
20260507190518 63 191 2.0 8.0 0.00 0.04 0.04 46 1009.0
20260507190039 63 167 1.0 3.0 0.00 0.04 0.04 44 1009.1
20260507185519 63 196 1.0 4.0 0.00 0.04 0.04 46 1009.3
20260507185018 62 79 1.0 7.0 0.00 0.04 0.04 44 1009.4
20260507184534 62 66 1.0 7.0 0.00 0.04 0.04 45 1009.7
20260507184018 62 11 1.0 5.0 0.00 0.04 0.04 40 1009.5
20260507183515 61 173 1.0 5.0 0.00 0.04 0.04 42 1009.6
20260507183039 61 179 1.0 5.0 0.00 0.04 0.04 42 1009.9
20260507182519 61 235 1.0 5.0 0.00 0.04 0.04 48 1009.9
20260507182017 61 221 1.0 5.0 0.00 0.04 0.04 43 1010.0
20260507181532 61 175 1.0 4.0 0.00 0.04 0.04 46 1009.9
20260507181019 60 190 1.0 4.0 0.00 0.04 0.04 49 1009.9
20260507180518 60 128 1.0 2.0 0.00 0.04 0.04 44 1009.9
20260507180042 60 46 1.0 2.0 0.00 0.04 0.04 43 1009.9
20260507175518 60 136 0.0 3.0 0.00 0.04 0.04 49 1010.2
20260507175019 60 61 1.0 3.0 0.00 0.04 0.04 47 1010.4
20260507174544 60 192 2.0 5.0 0.00 0.04 0.04 45 1010.5
20260507174018 60 192 1.0 5.0 0.00 0.04 0.04 45 1010.5
20260507173518 60 252 0.0 3.0 0.00 0.04 0.04 44 1010.5
20260507173041 59 196 0.0 3.0 0.00 0.04 0.04 50 1010.7
20260507172519 59 65 1.0 3.0 0.00 0.04 0.04 42 1010.7
20260507172015 59 182 0.0 3.0 0.00 0.04 0.04 43 1011.0
20260507171544 59 267 1.0 3.0 0.00 0.04 0.04 43 1011.0
20260507171019 59 36 1.0 2.0 0.00 0.04 0.04 50 1011.0
20260507170518 59 318 0.0 2.0 0.00 0.04 0.04 48 1011.0
20260507170039 58 271 0.0 2.0 0.00 0.04 0.04 51 1011.0
20260507165518 58 320 0.0 4.0 0.00 0.04 0.04 53 1011.2
20260507165018 58 19 1.0 4.0 0.00 0.04 0.04 45 1011.3
20260507164555 58 349 0.0 2.0 0.00 0.04 0.04 50 1011.3
20260507164019 58 0 0.0 2.0 0.00 0.04 0.04 52 1011.5
20260507163519 58 92 1.0 2.0 0.00 0.04 0.04 47 1011.5
20260507163038 57 18 0.0 2.0 0.00 0.04 0.04 51 1011.7
20260507162518 57 9 0.0 3.0 0.00 0.04 0.04 60 1011.5
20260507162019 57 0 0.0 5.0 0.00 0.04 0.04 47 1011.5
20260507161541 57 90 2.0 5.0 0.00 0.04 0.04 46 1011.7
20260507161019 57 209 0.0 2.0 0.00 0.04 0.04 60 1011.8
20260507160519 57 0 0.0 2.0 0.00 0.04 0.04 56 1011.7
20260507160038 56 208 0.0 2.0 0.00 0.04 0.04 54 1011.9
20260507155518 56 117 1.0 2.0 0.00 0.06 0.04 54 1012.1
20260507155019 56 181 0.0 2.0 0.00 0.06 0.04 51 1012.1
20260507154539 56 339 0.0 2.0 0.00 0.06 0.04 56 1012.1
20260507154018 56 224 0.0 2.0 0.00 0.06 0.04 55 1012.1
20260507153518 56 0 0.0 2.0 0.00 0.06 0.04 58 1011.9
20260507153046 56 130 0.0 2.0 0.00 0.06 0.04 61 1012.1
20260507152519 55 0 0.0 2.0 0.00 0.06 0.04 51 1012.0
20260507152019 55 264 0.0 2.0 0.00 0.06 0.04 58 1012.1
20260507151542 55 0 0.0 3.0 0.00 0.06 0.04 59 1012.1
20260507151018 55 329 1.0 3.0 0.00 0.06 0.04 60 1012.3
20260507150516 54 185 1.0 3.0 0.00 0.06 0.04 61 1012.3
20260507150036 54 65 0.0 2.0 0.00 0.06 0.04 70 1012.4
20260507145522 54 0 0.0 120.0 0.00 0.18 0.04 70 1012.4
20260507145019 53 0 0.0 120.0 0.00 0.18 0.04 68 1012.6
20260507144535 53 197 0.0 2.0 0.00 0.18 0.04 72 1012.6
20260507144019 53 0 0.0 2.0 0.00 0.18 0.04 70 1012.5
20260507143518 53 175 0.0 2.0 0.00 0.18 0.04 70 1012.8
20260507143040 53 0 0.0 2.0 0.00 0.18 0.04 69 1012.7
20260507142519 53 0 0.0 2.0 0.00 0.18 0.04 69 1012.7
20260507142016 53 182 0.0 2.0 0.00 0.18 0.04 69 1012.7
20260507141542 53 321 0.0 2.0 0.00 0.18 0.04 67 1012.8
20260507141018 53 134 0.0 2.0 0.00 0.18 0.04 70 1012.8
20260507140519 53 178 0.0 2.0 0.00 0.18 0.04 69 1012.8
20260507140035 54 0 0.0 2.0 0.00 0.18 0.04 79 1012.9
20260507135519 54 234 0.0 2.0 0.00 0.22 0.04 77 1012.9
20260507135019 54 0 0.0 2.0 0.00 0.22 0.04 75 1012.9
20260507134544 53 321 0.0 2.0 0.00 0.22 0.04 73 1012.8
20260507134016 53 340 0.0 2.0 0.00 0.22 0.04 80 1012.9
20260507133519 53 305 0.0 2.0 0.00 0.22 0.04 77 1012.9
20260507133039 53 324 0.0 2.0 0.00 0.22 0.04 78 1012.9
20260507132519 53 46 0.0 2.0 0.00 0.22 0.04 80 1012.8
20260507132021 53 107 0.0 2.0 0.00 0.22 0.04 75 1012.8
20260507131540 53 0 0.0 2.0 0.00 0.22 0.04 76 1012.8
20260507131019 53 81 0.0 2.0 0.00 0.22 0.04 79 1012.9
20260507130519 53 0 0.0 2.0 0.00 0.22 0.04 82 1012.9
20260507130041 52 0 0.0 2.0 0.00 0.22 0.04 83 1013.0
20260507125521 52 0 0.0 2.0 0.00 0.22 0.04 79 1013.1
20260507125018 52 0 0.0 2.0 0.00 0.22 0.04 80 1012.9
20260507124534 52 163 0.0 2.0 0.00 0.22 0.04 80 1013.0
20260507124016 52 0 0.0 2.0 0.00 0.22 0.04 79 1012.9
20260507123519 52 0 0.0 2.0 0.00 0.22 0.04 83 1012.8
20260507123039 52 134 0.0 2.0 0.00 0.22 0.04 84 1012.8
20260507122518 52 134 0.0 2.0 0.00 0.22 0.04 81 1012.8
20260507122016 52 182 0.0 2.0 0.00 0.22 0.04 84 1012.7
20260507121532 53 0 0.0 2.0 0.00 0.22 0.04 80 1012.6
20260507121019 53 0 0.0 2.0 0.00 0.22 0.04 83 1012.6
20260507120519 53 0 0.0 2.0 0.00 0.22 0.04 86 1012.6
20260507120038 52 0 0.0 2.0 0.00 0.22 0.04 89 1012.7
20260507115516 52 182 0.0 2.0 0.00 0.22 0.04 86 1012.5
20260507115015 52 152 0.0 2.0 0.00 0.22 0.04 85 1012.4
20260507114537 52 0 0.0 2.0 0.00 0.22 0.04 90 1012.2
20260507114019 52 0 0.0 2.0 0.00 0.22 0.04 89 1012.3
20260507113518 52 0 0.0 2.0 0.00 0.22 0.04 89 1012.4
20260507113034 51 0 0.0 1.0 0.00 0.22 0.04 86 1012.4
20260507112521 51 0 0.0 2.0 0.00 0.22 0.04 91 1012.2
20260507112019 51 0 0.0 2.0 0.00 0.22 0.04 87 1012.3
20260507111539 51 0 0.0 2.0 0.00 0.22 0.04 89 1012.5
20260507111018 51 0 0.0 2.0 0.00 0.22 0.04 85 1012.4
20260507110518 51 159 0.0 2.0 0.00 0.22 0.04 86 1012.3
20260507110050 51 159 0.0 2.0 0.00 0.22 0.04 87 1012.2
20260507105518 51 0 0.0 2.0 0.00 0.22 0.04 89 1012.2
20260507105018 51 0 0.0 1.0 0.00 0.22 0.04 89 1012.2
20260507104539 51 0 0.0 2.0 0.00 0.22 0.04 90 1012.0
20260507104019 52 0 0.0 2.0 0.00 0.22 0.04 90 1011.9
20260507103522 52 0 0.0 2.0 0.00 0.22 0.04 92 1011.9
20260507103036 52 0 0.0 2.0 0.00 0.22 0.04 91 1012.0
20260507102519 52 0 0.0 2.0 0.00 0.22 0.04 93 1011.9
20260507102019 52 151 0.0 2.0 0.00 0.22 0.04 92 1011.8
20260507101541 52 0 0.0 2.0 0.00 0.22 0.04 93 1011.8
20260507101023 52 163 0.0 2.0 0.00 0.22 0.04 94 1011.8
20260507100518 52 121 0.0 2.0 0.00 0.22 0.04 93 1011.6
20260507100035 52 0 0.0 2.0 0.00 0.22 0.04 93 1011.8
20260507095519 52 0 0.0 2.0 0.00 0.22 0.04 94 1011.8
20260507095019 52 0 0.0 2.0 0.00 0.22 0.04 94 1011.9
20260507094540 52 0 0.0 2.0 0.00 0.22 0.04 94 1011.7
20260507094018 52 0 0.0 2.0 0.00 0.22 0.04 94 1011.6
20260507093518 52 0 0.0 2.0 0.00 0.22 0.04 94 1011.5
20260507093039 52 0 0.0 2.0 0.00 0.22 0.04 94 1011.5
20260507092520 52 0 0.0 1.0 0.00 0.22 0.04 94 1011.6
20260507092019 52 0 0.0 0.0 0.00 0.22 0.04 94 1012.0
20260507091539 52 0 0.0 2.0 0.00 0.22 0.04 94 1012.0
20260507091019 52 0 0.0 2.0 0.00 0.22 0.04 93 1011.8
20260507090519 52 0 0.0 2.0 0.00 0.22 0.04 93 1011.8
20260507090040 52 0 0.0 2.0 0.00 0.22 0.04 93 1011.5
20260507085519 52 0 0.0 2.0 0.00 0.22 0.04 93 1011.4
20260507085019 52 0 0.0 2.0 0.00 0.22 0.04 92 1011.3
20260507084542 52 0 0.0 0.0 0.00 0.22 0.04 93 1011.3
20260507084016 52 0 0.0 2.0 0.00 0.22 0.04 93 1011.2
20260507083518 52 0 0.0 2.0 0.01 0.22 0.04 92 1011.4
20260507083036 52 123 0.0 2.0 0.01 0.22 0.04 92 1011.3
20260507082519 52 0 0.0 2.0 0.01 0.22 0.04 92 1011.2
20260507082021 52 0 0.0 2.0 0.01 0.22 0.04 91 1011.0
20260507081538 52 83 0.0 2.0 0.01 0.22 0.04 91 1010.9
20260507081015 53 45 0.0 2.0 0.01 0.22 0.04 90 1010.8
20260507080521 53 0 0.0 3.0 0.01 0.22 0.04 90 1010.8
20260507080037 53 165 0.0 5.0 0.01 0.22 0.04 89 1010.8
20260507075519 53 132 0.0 5.0 0.01 0.22 0.04 88 1010.6
20260507075019 54 149 1.0 2.0 0.01 0.22 0.04 87 1010.8
20260507074542 54 38 0.0 2.0 0.01 0.22 0.04 92 1010.6
20260507074019 54 159 0.0 2.0 0.01 0.22 0.04 91 1010.3
20260507073519 54 349 0.0 2.0 0.00 0.21 0.03 91 1010.4
20260507073041 54 93 0.0 2.0 0.00 0.21 0.03 92 1010.4
20260507072519 55 0 0.0 2.0 0.00 0.21 0.03 92 1010.5
20260507072018 55 0 0.0 2.0 0.00 0.21 0.03 92 1010.4
20260507071538 55 258 0.0 2.0 0.00 0.21 0.03 93 1010.5
20260507071020 55 0 0.0 2.0 0.00 0.21 0.03 89 1010.3
20260507070519 55 126 0.0 2.0 0.00 0.21 0.03 93 1010.3
20260507070053 55 19 0.0 2.0 0.00 0.21 0.03 93 1010.1
20260507065519 55 78 0.0 2.0 0.00 0.21 0.03 93 1010.2
20260507065019 55 127 0.0 3.0 0.00 0.21 0.03 93 1010.3
20260507064539 55 0 0.0 3.0 0.00 0.21 0.03 93 1010.3
20260507064020 55 36 0.0 2.0 0.00 0.21 0.03 93 1010.3
20260507063517 56 33 0.0 2.0 0.01 0.21 0.03 93 1010.2
20260507063039 56 33 0.0 2.0 0.01 0.21 0.03 93 1010.4
20260507062519 56 53 0.0 2.0 0.01 0.21 0.03 93 1009.9
20260507062019 56 0 0.0 2.0 0.01 0.21 0.03 93 1010.0
20260507061540 56 122 0.0 2.0 0.02 0.21 0.03 93 1010.0
20260507061020 56 32 0.0 2.0 0.02 0.21 0.03 93 1010.2
20260507060518 56 286 0.0 2.0 0.02 0.21 0.03 93 1010.3
20260507060051 56 286 0.0 3.0 0.02 0.21 0.03 92 1010.3
20260507055520 56 282 0.0 3.0 0.03 0.21 0.03 92 1010.4
20260507055019 56 0 0.0 2.0 0.03 0.21 0.03 92 1010.5
20260507054538 57 318 0.0 2.0 0.03 0.21 0.03 91 1010.4
20260507054019 57 9 0.0 2.0 0.03 0.21 0.03 91 1010.2
20260507053516 57 0 0.0 2.0 0.02 0.20 0.02 90 1010.3
20260507053048 57 18 0.0 3.0 0.02 0.20 0.02 89 1010.1
20260507052521 58 336 0.0 3.0 0.02 0.20 0.02 87 1010.3
20260507052019 59 38 1.0 3.0 0.02 0.20 0.02 87 1010.5
20260507051539 59 304 0.0 2.0 0.01 0.19 0.01 85 1010.9
20260507051018 59 45 0.0 3.0 0.01 0.19 0.01 83 1010.6
20260507050519 60 56 0.0 5.0 0.01 0.19 0.01 83 1010.5
20260507050042 60 220 1.0 5.0 0.01 0.19 0.01 79 1010.9
20260507045521 60 74 1.0 3.0 0.00 0.18 0.00 85 1010.3
20260507045019 61 13 0.0 2.0 0.00 0.18 0.00 83 1010.4
20260507044539 61 0 0.0 2.0 0.00 0.18 0.00 82 1010.2
20260507044018 61 0 0.0 2.0 0.00 0.18 0.00 83 1010.5
20260507043519 61 342 1.0 2.0 0.00 0.18 0.00 81 1010.5
20260507043038 61 71 0.0 2.0 0.00 0.18 0.00 84 1010.4
20260507042518 61 0 0.0 2.0 0.00 0.18 0.00 83 1010.3
20260507042019 61 0 0.0 2.0 0.00 0.18 0.00 84 1010.1
20260507041539 61 262 0.0 2.0 0.00 0.18 0.00 84 1010.1
20260507041018 61 213 0.0 2.0 0.00 0.18 0.00 85 1009.9
20260507040519 61 0 0.0 2.0 0.00 0.18 0.00 85 1009.8
20260507040035 61 213 0.0 3.0 0.00 0.18 0.00 82 1009.5
20260507035520 61 0 0.0 3.0 0.00 0.18 0.18 84 1009.5
20260507035019 61 178 0.0 7.0 0.00 0.18 0.18 85 1009.5
20260507034550 61 51 0.0 7.0 0.00 0.18 0.18 80 1009.9
20260507034019 62 0 0.0 2.0 0.00 0.18 0.18 85 1010.1
20260507033519 62 312 0.0 2.0 0.00 0.18 0.18 84 1010.1
20260507033043 62 0 0.0 2.0 0.00 0.18 0.18 82 1009.9
20260507032518 62 0 0.0 2.0 0.00 0.18 0.18 82 1009.8
20260507032018 63 0 0.0 4.0 0.00 0.18 0.18 85 1009.5
20260507031538 63 9 0.0 2.0 0.00 0.18 0.18 85 1009.6
20260507031018 63 161 0.0 3.0 0.00 0.18 0.18 85 1009.4
20260507030519 64 184 0.0 3.0 0.00 0.18 0.18 86 1009.4
20260507030040 65 0 0.0 2.0 0.00 0.18 0.18 86 1009.4
20260507025519 65 283 0.0 2.0 0.00 0.18 0.18 86 1009.3